Time,TemperatureF,DewpointF,PressureIn,WindDirection,WindDirectionDegrees,WindSpeedMPH,WindSpeedGustMPH,Humidity,HourlyPrecipIn,Conditions,Clouds,dailyrainin,SoftwareType,DateUTC
2013-02-11 00:02:00,29.1,27.0,29.37,WNW,303,12.0,-999.0,92,-99.99,,,0.00,weatherlink.com 1.10,2013-02-11 06:02:00,
2013-02-11 00:17:00,29.0,27.0,29.38,NW,322,7.0,-999.0,91,-99.99,,,0.00,weatherlink.com 1.10,2013-02-11 06:17:00,
2013-02-11 00:31:00,28.9,27.0,29.39,West,281,7.0,-999.0,91,-99.99,,,0.00,weatherlink.com 1.10,2013-02-11 06:31:00,
2013-02-11 00:45:00,28.7,26.0,29.40,West,277,9.0,-999.0,91,-99.99,,,0.00,weatherlink.com 1.10,2013-02-11 06:45:00,
2013-02-11 01:00:00,28.7,26.0,29.41,WNW,283,12.0,-999.0,91,-99.99,,,0.00,weatherlink.com 1.10,2013-02-11 07:00:00,
2013-02-11 01:14:00,28.8,27.0,29.41,WNW,297,10.0,-999.0,91,-99.99,,,0.00,weatherlink.com 1.10,2013-02-11 07:14:00,
2013-02-11 01:28:00,28.9,26.0,29.42,WNW,293,13.0,-999.0,90,-99.99,,,0.00,weatherlink.com 1.10,2013-02-11 07:28:00,
2013-02-11 01:43:00,29.0,26.0,29.43,West,267,14.0,-999.0,90,-99.99,,,0.00,weatherlink.com 1.10,2013-02-11 07:43:00,
2013-02-11 01:57:00,29.1,27.0,29.44,WNW,299,11.0,-999.0,90,-99.99,,,0.00,weatherlink.com 1.10,2013-02-11 07:57:00,
2013-02-11 02:11:00,29.1,26.0,29.45,West,279,12.0,-999.0,89,-99.99,,,0.00,weatherlink.com 1.10,2013-02-11 08:11:00,
2013-02-11 02:25:00,29.0,26.0,29.46,West,264,12.0,-999.0,89,-99.99,,,0.00,weatherlink.com 1.10,2013-02-11 08:25:00,
2013-02-11 02:40:00,28.9,26.0,29.47,WNW,285,14.0,-999.0,88,-99.99,,,0.00,weatherlink.com 1.10,2013-02-11 08:40:00,
2013-02-11 02:54:00,28.8,26.0,29.48,West,268,14.0,-999.0,88,-99.99,,,0.00,weatherlink.com 1.10,2013-02-11 08:54:00,
2013-02-11 03:08:00,28.6,25.0,29.49,NW,306,15.0,-999.0,88,-99.99,,,0.00,weatherlink.com 1.10,2013-02-11 09:08:00,
2013-02-11 03:23:00,28.5,25.0,29.50,NW,312,9.0,-999.0,88,-99.99,,,0.00,weatherlink.com 1.10,2013-02-11 09:23:00,
2013-02-11 03:37:00,28.4,25.0,29.51,WNW,282,11.0,-999.0,88,-99.99,,,0.00,weatherlink.com 1.10,2013-02-11 09:37:00,
2013-02-11 03:51:00,28.3,25.0,29.52,WNW,283,11.0,-999.0,87,-99.99,,,0.00,weatherlink.com 1.10,2013-02-11 09:51:00,
2013-02-11 04:06:00,28.2,25.0,29.53,NW,312,10.0,-999.0,87,-99.99,,,0.00,weatherlink.com 1.10,2013-02-11 10:06:00,
2013-02-11 04:20:00,28.0,25.0,29.54,NW,304,10.0,-999.0,87,-99.99,,,0.00,weatherlink.com 1.10,2013-02-11 10:20:00,
2013-02-11 04:34:00,27.7,24.0,29.55,West,266,14.0,-999.0,86,-99.99,,,0.00,weatherlink.com 1.10,2013-02-11 10:34:00,
2013-02-11 04:48:00,27.4,24.0,29.56,WNW,291,9.0,-999.0,86,-99.99,,,0.00,weatherlink.com 1.10,2013-02-11 10:48:00,
2013-02-11 05:03:00,27.1,23.0,29.57,West,281,11.0,-999.0,86,-99.99,,,0.00,weatherlink.com 1.10,2013-02-11 11:03:00,
2013-02-11 05:17:00,26.9,23.0,29.59,NW,306,12.0,-999.0,85,-99.99,,,0.00,weatherlink.com 1.10,2013-02-11 11:17:00,
2013-02-11 05:31:00,26.3,23.0,29.60,WNW,295,14.0,-999.0,86,-99.99,,,0.00,weatherlink.com 1.10,2013-02-11 11:31:00,
2013-02-11 05:46:00,26.2,22.0,29.61,WNW,289,14.0,-999.0,85,-99.99,,,0.00,weatherlink.com 1.10,2013-02-11 11:46:00,
2013-02-11 06:00:00,26.1,22.0,29.62,NW,309,12.0,-999.0,84,-99.99,,,0.00,weatherlink.com 1.10,2013-02-11 12:00:00,
2013-02-11 06:15:00,25.7,22.0,29.64,WNW,300,14.0,-999.0,85,-99.99,,,0.00,weatherlink.com 1.10,2013-02-11 12:15:00,
2013-02-11 06:29:00,25.5,21.0,29.64,WNW,297,17.0,-999.0,84,-99.99,,,0.00,weatherlink.com 1.10,2013-02-11 12:29:00,
2013-02-11 06:43:00,25.3,21.0,29.65,WNW,294,9.0,-999.0,84,-99.99,,,0.00,weatherlink.com 1.10,2013-02-11 12:43:00,
2013-02-11 06:58:00,24.9,21.0,29.67,NW,304,10.0,-999.0,84,-99.99,,,0.00,weatherlink.com 1.10,2013-02-11 12:58:00,
2013-02-11 07:12:00,24.5,21.0,29.68,West,276,7.0,-999.0,85,-99.99,,,0.00,weatherlink.com 1.10,2013-02-11 13:12:00,
2013-02-11 07:26:00,24.2,21.0,29.69,WNW,287,11.0,-999.0,86,-99.99,,,0.00,weatherlink.com 1.10,2013-02-11 13:26:00,
2013-02-11 07:40:00,24.1,21.0,29.70,West,279,11.0,-999.0,86,-99.99,,,0.00,weatherlink.com 1.10,2013-02-11 13:40:00,
2013-02-11 07:55:00,24.6,20.0,29.71,West,281,12.0,-999.0,84,-99.99,,,0.00,weatherlink.com 1.10,2013-02-11 13:55:00,
2013-02-11 08:09:00,24.4,20.0,29.73,NNW,328,11.0,-999.0,83,-99.99,,,0.00,weatherlink.com 1.10,2013-02-11 14:09:00,
2013-02-11 08:23:00,24.1,20.0,29.74,WNW,283,10.0,-999.0,83,-99.99,,,0.00,weatherlink.com 1.10,2013-02-11 14:23:00,
2013-02-11 08:38:00,24.1,20.0,29.75,WNW,295,6.0,-999.0,83,-99.99,,,0.00,weatherlink.com 1.10,2013-02-11 14:38:00,
2013-02-11 08:52:00,24.8,20.0,29.76,WNW,291,10.0,-999.0,82,-99.99,,,0.00,weatherlink.com 1.10,2013-02-11 14:52:00,
2013-02-11 09:06:00,25.0,20.0,29.77,West,279,11.0,-999.0,81,-99.99,,,0.00,weatherlink.com 1.10,2013-02-11 15:06:00,
2013-02-11 09:21:00,25.1,20.0,29.77,WNW,293,12.0,-999.0,81,-99.99,,,0.00,weatherlink.com 1.10,2013-02-11 15:21:00,
2013-02-11 09:35:00,24.9,20.0,29.79,WNW,287,18.0,-999.0,80,-99.99,,,0.00,weatherlink.com 1.10,2013-02-11 15:35:00,
2013-02-11 09:49:00,25.0,20.0,29.79,WNW,289,10.0,-999.0,80,-99.99,,,0.00,weatherlink.com 1.10,2013-02-11 15:49:00,
2013-02-11 10:03:00,25.1,20.0,29.81,WNW,300,14.0,-999.0,79,-99.99,,,0.00,weatherlink.com 1.10,2013-02-11 16:03:00,
2013-02-11 10:18:00,24.9,19.0,29.82,NW,310,14.0,-999.0,79,-99.99,,,0.00,weatherlink.com 1.10,2013-02-11 16:18:00,
2013-02-11 10:32:00,24.9,19.0,29.82,WNW,301,11.0,-999.0,77,-99.99,,,0.00,weatherlink.com 1.10,2013-02-11 16:32:00,
2013-02-11 10:46:00,24.8,19.0,29.84,WNW,286,16.0,-999.0,77,-99.99,,,0.00,weatherlink.com 1.10,2013-02-11 16:46:00,
2013-02-11 11:01:00,24.8,19.0,29.84,WNW,287,21.0,-999.0,77,-99.99,,,0.00,weatherlink.com 1.10,2013-02-11 17:01:00,
2013-02-11 11:15:00,24.7,18.0,29.85,WNW,284,10.0,-999.0,76,-99.99,,,0.00,weatherlink.com 1.10,2013-02-11 17:15:00,
2013-02-11 11:29:00,25.2,19.0,29.86,WNW,289,15.0,-999.0,76,-99.99,,,0.00,weatherlink.com 1.10,2013-02-11 17:29:00,
2013-02-11 11:44:00,25.1,18.0,29.86,WNW,283,15.0,-999.0,75,-99.99,,,0.00,weatherlink.com 1.10,2013-02-11 17:44:00,
2013-02-11 11:58:00,25.1,18.0,29.86,NW,305,20.0,-999.0,75,-99.99,,,0.00,weatherlink.com 1.10,2013-02-11 17:58:00,
2013-02-11 12:13:00,25.1,18.0,29.87,West,269,12.0,-999.0,75,-99.99,,,0.00,weatherlink.com 1.10,2013-02-11 18:13:00,
2013-02-11 12:27:00,25.2,19.0,29.88,WNW,300,10.0,-999.0,76,-99.99,,,0.00,weatherlink.com 1.10,2013-02-11 18:27:00,
2013-02-11 12:41:00,24.9,18.0,29.89,WNW,287,11.0,-999.0,76,-99.99,,,0.00,weatherlink.com 1.10,2013-02-11 18:41:00,
2013-02-11 12:55:00,24.9,18.0,29.89,WNW,286,13.0,-999.0,75,-99.99,,,0.00,weatherlink.com 1.10,2013-02-11 18:55:00,
2013-02-11 13:10:00,25.0,19.0,29.89,West,278,14.0,-999.0,76,-99.99,,,0.00,weatherlink.com 1.10,2013-02-11 19:10:00,
2013-02-11 13:24:00,24.9,18.0,29.90,WNW,301,9.0,-999.0,76,-99.99,,,0.00,weatherlink.com 1.10,2013-02-11 19:24:00,
2013-02-11 13:38:00,24.4,18.0,29.91,WNW,290,13.0,-999.0,76,-99.99,,,0.00,weatherlink.com 1.10,2013-02-11 19:38:00,
2013-02-11 13:52:00,24.4,18.0,29.91,WNW,289,10.0,-999.0,76,-99.99,,,0.00,weatherlink.com 1.10,2013-02-11 19:52:00,
2013-02-11 14:07:00,24.5,18.0,29.91,WNW,283,17.0,-999.0,76,-99.99,,,0.00,weatherlink.com 1.10,2013-02-11 20:07:00,
2013-02-11 14:21:00,24.5,18.0,29.92,WNW,292,13.0,-999.0,76,-99.99,,,0.00,weatherlink.com 1.10,2013-02-11 20:21:00,
2013-02-11 14:35:00,24.4,18.0,29.93,WNW,300,20.0,-999.0,76,-99.99,,,0.00,weatherlink.com 1.10,2013-02-11 20:35:00,
2013-02-11 14:49:00,24.2,18.0,29.93,WNW,301,13.0,-999.0,76,-99.99,,,0.00,weatherlink.com 1.10,2013-02-11 20:49:00,
2013-02-11 15:04:00,24.0,18.0,29.94,WNW,289,11.0,-999.0,77,-99.99,,,0.00,weatherlink.com 1.10,2013-02-11 21:04:00,
2013-02-11 15:18:00,23.6,17.0,29.95,West,266,12.0,-999.0,76,-99.99,,,0.00,weatherlink.com 1.10,2013-02-11 21:18:00,
2013-02-11 15:32:00,23.5,17.0,29.96,WNW,301,10.0,-999.0,76,-99.99,,,0.00,weatherlink.com 1.10,2013-02-11 21:32:00,
2013-02-11 15:47:00,23.2,16.0,29.96,WNW,282,13.0,-999.0,75,-99.99,,,0.00,weatherlink.com 1.10,2013-02-11 21:47:00,
2013-02-11 16:01:00,23.0,16.0,29.97,WNW,285,11.0,-999.0,74,-99.99,,,0.00,weatherlink.com 1.10,2013-02-11 22:01:00,
2013-02-11 16:15:00,22.8,16.0,29.97,WNW,288,11.0,-999.0,76,-99.99,,,0.00,weatherlink.com 1.10,2013-02-11 22:15:00,
2013-02-11 16:29:00,22.4,16.0,29.98,West,281,5.0,-999.0,76,-99.99,,,0.00,weatherlink.com 1.10,2013-02-11 22:29:00,
2013-02-11 16:44:00,22.0,15.0,29.99,WNW,298,11.0,-999.0,75,-99.99,,,0.00,weatherlink.com 1.10,2013-02-11 22:44:00,
2013-02-11 16:58:00,21.3,14.0,30.00,WNW,286,9.0,-999.0,74,-99.99,,,0.00,weatherlink.com 1.10,2013-02-11 22:58:00,
2013-02-11 17:12:00,21.1,14.0,30.00,WNW,293,14.0,-999.0,73,-99.99,,,0.00,weatherlink.com 1.10,2013-02-11 23:12:00,
2013-02-11 17:27:00,20.9,14.0,30.01,WNW,301,17.0,-999.0,73,-99.99,,,0.00,weatherlink.com 1.10,2013-02-11 23:27:00,
2013-02-11 17:41:00,20.7,13.0,30.01,West,259,13.0,-999.0,73,-99.99,,,0.00,weatherlink.com 1.10,2013-02-11 23:41:00,
2013-02-11 17:55:00,20.4,13.0,30.01,West,262,12.0,-999.0,74,-99.99,,,0.00,weatherlink.com 1.10,2013-02-11 23:55:00,
2013-02-11 18:10:00,20.2,14.0,30.02,West,271,6.0,-999.0,75,-99.99,,,0.00,weatherlink.com 1.10,2013-02-12 00:10:00,
2013-02-11 18:24:00,20.1,13.0,30.03,West,279,10.0,-999.0,75,-99.99,,,0.00,weatherlink.com 1.10,2013-02-12 00:24:00,
2013-02-11 18:39:00,20.0,13.0,30.03,West,265,11.0,-999.0,75,-99.99,,,0.00,weatherlink.com 1.10,2013-02-12 00:39:00,
2013-02-11 18:53:00,20.0,13.0,30.03,West,271,4.0,-999.0,75,-99.99,,,0.00,weatherlink.com 1.10,2013-02-12 00:53:00,
2013-02-11 19:07:00,19.9,13.0,30.03,West,275,5.0,-999.0,75,-99.99,,,0.00,weatherlink.com 1.10,2013-02-12 01:07:00,
2013-02-11 19:21:00,19.7,13.0,30.04,West,270,6.0,-999.0,76,-99.99,,,0.00,weatherlink.com 1.10,2013-02-12 01:21:00,
2013-02-11 19:36:00,19.7,14.0,30.04,West,272,3.0,-999.0,77,-99.99,,,0.00,weatherlink.com 1.10,2013-02-12 01:36:00,
2013-02-11 19:50:00,19.7,14.0,30.04,WSW,255,3.0,-999.0,77,-99.99,,,0.00,weatherlink.com 1.10,2013-02-12 01:50:00,
2013-02-11 20:04:00,19.7,14.0,30.04,West,270,6.0,-999.0,78,-99.99,,,0.00,weatherlink.com 1.10,2013-02-12 02:04:00,
2013-02-11 20:18:00,20.0,14.0,30.04,West,274,5.0,-999.0,78,-99.99,,,0.00,weatherlink.com 1.10,2013-02-12 02:18:00,
2013-02-11 20:33:00,20.0,14.0,30.05,WSW,243,4.0,-999.0,78,-99.99,,,0.00,weatherlink.com 1.10,2013-02-12 02:33:00,
2013-02-11 20:47:00,20.0,14.0,30.05,West,263,3.0,-999.0,78,-99.99,,,0.00,weatherlink.com 1.10,2013-02-12 02:47:00,
2013-02-11 21:01:00,20.2,14.0,30.05,WNW,285,7.0,-999.0,78,-99.99,,,0.00,weatherlink.com 1.10,2013-02-12 03:01:00,
2013-02-11 21:15:00,19.7,14.0,30.06,SW,235,1.0,-999.0,78,-99.99,,,0.00,weatherlink.com 1.10,2013-02-12 03:15:00,
2013-02-11 21:30:00,18.5,13.0,30.07,West,265,2.0,-999.0,78,-99.99,,,0.00,weatherlink.com 1.10,2013-02-12 03:30:00,
2013-02-11 21:44:00,17.3,12.0,30.07,WSW,258,2.0,-999.0,78,-99.99,,,0.00,weatherlink.com 1.10,2013-02-12 03:44:00,
2013-02-11 21:59:00,16.5,11.0,30.08,WSW,253,0.0,-999.0,79,-99.99,,,0.00,weatherlink.com 1.10,2013-02-12 03:59:00,
2013-02-11 22:13:00,15.7,10.0,30.08,WSW,252,1.0,-999.0,79,-99.99,,,0.00,weatherlink.com 1.10,2013-02-12 04:13:00,
2013-02-11 22:27:00,14.9,10.0,30.08,WSW,254,1.0,-999.0,80,-99.99,,,0.00,weatherlink.com 1.10,2013-02-12 04:27:00,
2013-02-11 22:42:00,14.3,10.0,30.08,WSW,254,1.0,-999.0,81,-99.99,,,0.00,weatherlink.com 1.10,2013-02-12 04:42:00,
2013-02-11 22:56:00,14.0,9.0,30.08,WSW,246,2.0,-999.0,81,-99.99,,,0.00,weatherlink.com 1.10,2013-02-12 04:56:00,
2013-02-11 23:10:00,13.6,9.0,30.08,WSW,252,2.0,-999.0,81,-99.99,,,0.00,weatherlink.com 1.10,2013-02-12 05:10:00,
2013-02-11 23:24:00,13.5,9.0,30.08,WSW,237,0.0,-999.0,81,-99.99,,,0.00,weatherlink.com 1.10,2013-02-12 05:24:00,
2013-02-11 23:39:00,13.2,8.0,30.08,WSW,248,1.0,-999.0,81,-99.99,,,0.00,weatherlink.com 1.10,2013-02-12 05:39:00,
2013-02-11 23:53:00,13.0,8.0,30.08,SW,231,1.0,-999.0,81,-99.99,,,0.00,weatherlink.com 1.10,2013-02-12 05:53:00,